Location: Home
(42.5358°N, 72.7383°W)
Time: 16:58:28
(UTC-04:00)

Explorer 11/Cluster Stage 4 - Pass Details

Date: 07 August 2024
Orbit: 464 x 1208 km, 28.8° (Epoch: 19 September)

Event Time Altitude Azimuth Distance (km) Brightness Sun altitude
Rises 05:50:12 0° 257° (WSW) 4,085 - -0.8°
Exits shadow 05:50:23 - 256° (WSW) 4,037 9.5 -0.8°
Reaches altitude 10° 05:54:35 10° 236° (SW) 3,145 9.0 0.0°
Maximum altitude 05:58:35 15° 205° (SSW) 2,780 9.0 0.6°
Drops below altitude 10° 06:02:31 10° 175° (S) 3,075 9.5 1.3°
Sets 06:06:44 0° 153° (SSE) 3,940 10.3 2.0°
